User: anonymous   Login
Location: Caltech
(34.1382°N, 118.1253°W)
Time: 18:39:21
(UTC-07:00)
Language:

ASTRO E2 - Orbit

View from above orbital plane
View from above orbital plane
View from above satellite
View from above satellite

Ground track
Ground track

The orbit data is extracted from the following two-line orbital elements,

1 28773U 05025A   14294.76303252  .00008054  00000-0  48062-3 0  3946
2 28773 031.3828 084.0173 0005382 008.0635 089.7344 15.09854771510331
Epoch (UTC): 21 October 2014 18:18:46
Eccentricity: 0.0005382
inclination: 31.3828°
perigee height: 533 km
apogee height: 540 km
right ascension of ascending node: 84.0173°
argument of perigee: 8.0635°
revolutions per day: 15.09854771
mean anomaly at epoch: 89.7344°
orbit number at epoch: 51033

The dashed part of the orbit path shows where the satellite is in the earth's shadow,  

DLR